TimeCST,TemperatureF,Dew PointF,Humidity,Sea Level PressureIn,VisibilityMPH,Wind Direction,Wind SpeedMPH,Gust SpeedMPH,PrecipitationIn,Events,Conditions,WindDirDegrees,DateUTC
12:52 AM,17.1,9.0,71,30.22,10.0,WNW,9.2,-,N/A,,Clear,300,2013-01-26 06:52:00
1:52 AM,16.0,9.0,74,30.24,10.0,WNW,9.2,-,N/A,,Clear,300,2013-01-26 07:52:00
2:52 AM,14.0,8.1,77,30.25,10.0,NW,9.2,-,N/A,,Clear,310,2013-01-26 08:52:00
3:52 AM,12.9,6.1,74,30.27,10.0,NW,9.2,-,N/A,,Clear,310,2013-01-26 09:52:00
4:52 AM,12.9,5.0,71,30.27,10.0,NW,9.2,-,N/A,,Partly Cloudy,310,2013-01-26 10:52:00
5:52 AM,12.0,5.0,73,30.30,10.0,WNW,5.8,-,N/A,,Scattered Clouds,300,2013-01-26 11:52:00
6:52 AM,10.9,3.9,73,30.32,10.0,WNW,6.9,-,N/A,,Scattered Clouds,290,2013-01-26 12:52:00
7:52 AM,10.9,3.9,73,30.35,10.0,WNW,10.4,-,N/A,,Scattered Clouds,290,2013-01-26 13:52:00
8:52 AM,12.9,5.0,71,30.37,10.0,WNW,9.2,-,N/A,,Scattered Clouds,290,2013-01-26 14:52:00
9:52 AM,16.0,7.0,68,30.40,10.0,West,10.4,-,N/A,,Scattered Clouds,280,2013-01-26 15:52:00
10:52 AM,19.0,8.1,62,30.40,10.0,WNW,6.9,-,N/A,,Scattered Clouds,300,2013-01-26 16:52:00
11:52 AM,21.9,9.0,58,30.40,10.0,WNW,4.6,-,N/A,,Scattered Clouds,300,2013-01-26 17:52:00
12:52 PM,26.1,10.0,51,30.38,10.0,NE,3.5,-,N/A,,Scattered Clouds,40,2013-01-26 18:52:00
1:52 PM,25.0,9.0,51,30.38,10.0,East,3.5,-,N/A,,Scattered Clouds,100,2013-01-26 19:52:00
2:52 PM,25.0,10.9,55,30.39,10.0,East,6.9,-,N/A,,Scattered Clouds,100,2013-01-26 20:52:00
3:52 PM,24.1,12.0,60,30.40,10.0,East,6.9,-,N/A,,Scattered Clouds,100,2013-01-26 21:52:00
4:52 PM,21.0,10.9,65,30.40,10.0,ESE,6.9,-,N/A,,Scattered Clouds,120,2013-01-26 22:52:00
5:52 PM,21.9,10.0,60,30.40,10.0,South,5.8,-,N/A,,Scattered Clouds,170,2013-01-26 23:52:00
6:52 PM,21.9,9.0,58,30.41,10.0,South,3.5,-,N/A,,Mostly Cloudy,180,2013-01-27 00:52:00
7:52 PM,21.9,8.1,55,30.40,10.0,South,5.8,-,N/A,,Mostly Cloudy,180,2013-01-27 01:52:00
8:52 PM,21.9,10.0,60,30.41,10.0,South,5.8,-,N/A,,Scattered Clouds,190,2013-01-27 02:52:00
9:52 PM,23.0,10.9,60,30.41,10.0,South,4.6,-,N/A,,Mostly Cloudy,170,2013-01-27 03:52:00
10:52 PM,24.1,12.0,60,30.40,10.0,South,5.8,-,N/A,,Mostly Cloudy,180,2013-01-27 04:52:00
11:52 PM,24.1,12.9,62,30.38,10.0,South,4.6,-,N/A,,Overcast,170,2013-01-27 05:52:00